Simultaneous Nadir Overpasses (SNOs) Predictions

Prediction of SNOs between METOP-C and LANDSAT-8 Satellite Orbit:

Table of predicted SNOs for the next 14.0 days since TLE Epoch: 12/21/2019
Index Date (METOP-C) Time (METOP-C) Lat,Lon (METOP-C) SZA (METOP-C ) Date (LANDSAT-8) Time (LANDSAT-8) Lat,Lon (LANDSAT-8) SZA (LANDSAT-8 ) Distance(km) Time Diff (sec)
1 12/21/2019 04:31:55 81.07, 151.07 106.41 12/21/2019 04:32:30 81.07, 150.97 106.41 1.66 35
2 12/21/2019 05:22:33 -81.10, -41.01 73.52 12/21/2019 05:21:56 -81.09, -41.06 73.54 0.87 37
3 12/24/2019 00:05:45 81.06,-142.84 106.31 12/24/2019 00:06:45 81.06,-142.77 106.34 1.39 60
4 12/24/2019 00:56:23 -81.08, 25.13 73.62 12/24/2019 00:56:11 -81.08, 25.22 73.61 1.56 12
5 12/26/2019 20:30:11 -81.08, 91.66 73.72 12/26/2019 20:30:25 -81.07, 91.48 73.74 3.30 14
6 12/26/2019 21:20:51 81.09,-100.70 106.32 12/26/2019 21:19:50 81.10,-100.52 106.31 3.14 61
7 12/29/2019 16:04:01 -81.07, 157.82 73.94 12/29/2019 16:04:40 -81.06, 157.70 73.94 2.26 39
8 12/29/2019 16:54:40 81.09, -34.24 106.14 12/29/2019 16:54:05 81.08, -34.32 106.11 1.65 35
9 01/01/2020 11:37:50 -81.06,-135.65 74.17 01/01/2020 11:38:54 -81.06,-135.76 74.15 1.80 64




NCC Satellite Simultaneous Nadir Overpasses (SNOs) Prediction Service
